Clinton, IA

3:30 PM CDT on April 29, 2017 (GMT -0500)
Clinton Municipal

Weather History for KCWI - January, 2014

Change the Weather History Date:

Sunday, January 5, 2014

  Actual Average Record
Temperature  
Mean Temperature 4 °F -  
Max Temperature 19 °F 28 °F 53 °F (1956)
Min Temperature -11 °F 10 °F -23 °F (1959)
Degree Days  
Heating Degree Days 61    
Moisture  
Dew Point -3 °F    
Average Humidity 63    
Maximum Humidity 70    
Minimum Humidity 52    
Precipitation  
Precipitation 0.00 in - - ()
Sea Level Pressure  
Sea Level Pressure 30.15 in    
Wind  
Wind Speed 19 mph (NNW)    
Max Wind Speed 28 mph    
Max Gust Speed 34 mph    
Visibility 9 miles    
Events      
Averages and records for this station are not official NWS values.
T = Trace of Precipitation, MM = Missing Value Source: NWS Daily Summary

Daily Weather History Graph

Daily Weather History Graph

Search for Another Location

Airport or City:

Trip Planner

Search our weather history database for the weather conditions in past years. The results will help you decide how hot, cold, wet, or windy it might be!

Date:

Astronomy

Jan. 05, 2014 Rise Set
Actual Time 7:28 AM CST 4:44 PM CST
Civil Twilight 6:57 AM CST 5:16 PM CST
Nautical Twilight 6:22 AM CST 5:51 PM CST
Astronomical Twilight 5:49 AM CST 6:24 PM CST
Moon 10:05 AM CST (1/5) 10:18 PM CST (1/5)
Length of Visible Light 10h 18m
Length of Day
9h 15m
Waxing Crescent, 25% of the Moon is Illuminated
Jan 5
Waxing Crescent
Jan 7
First Quarter
Jan 15
Full
Jan 23
Last Quarter
Jan 30
New

Hourly Weather History & Observations

Time (CST) Temp. Windchill Dew Point Humidity Pressure Visibility Wind Dir Wind Speed Gust Speed Precip Events Conditions
12:15 AM 19.4 °F 4.1 °F 10.4 °F 68% 30.06 in 10.0 mi North 18.4 mph - N/A   Scattered Clouds
12:35 AM 19.4 °F 4.5 °F 10.4 °F 68% 30.06 in 10.0 mi North 17.3 mph 23.0 mph N/A   Clear
12:55 AM 19.4 °F 5.0 °F 10.4 °F 68% 30.07 in 10.0 mi NNE 16.1 mph - N/A   Scattered Clouds
1:15 AM 17.6 °F 2.2 °F 8.6 °F 68% 30.08 in 10.0 mi NNE 17.3 mph - N/A   Partly Cloudy
1:35 AM 17.6 °F 0.9 °F 8.6 °F 68% 30.09 in 10.0 mi NNE 20.7 mph - N/A   Clear
1:55 AM 17.6 °F 2.7 °F 8.6 °F 68% 30.10 in 10.0 mi NNE 16.1 mph - N/A   Scattered Clouds
2:15 AM 17.6 °F 3.2 °F 6.8 °F 63% 30.11 in 10.0 mi NNE 15.0 mph - N/A   Partly Cloudy
2:35 AM 17.6 °F 3.2 °F 6.8 °F 63% 30.11 in 10.0 mi North 15.0 mph - N/A   Clear
2:55 AM 15.8 °F 0.3 °F 6.8 °F 68% 30.10 in 10.0 mi North 16.1 mph - N/A   Clear
3:15 AM 15.8 °F 0.3 °F 6.8 °F 68% 30.10 in 10.0 mi North 16.1 mph - N/A   Clear
3:35 AM 15.8 °F 0.3 °F 6.8 °F 68% 30.10 in 10.0 mi NNE 16.1 mph - N/A   Partly Cloudy
3:55 AM 15.8 °F -0.2 °F 6.8 °F 68% 30.10 in 10.0 mi NNE 17.3 mph - N/A   Mostly Cloudy
4:15 AM 15.8 °F -0.2 °F 6.8 °F 68% 30.09 in 10.0 mi NNE 17.3 mph - N/A   Overcast
4:35 AM 15.8 °F 1.4 °F 6.8 °F 68% 30.09 in 10.0 mi North 13.8 mph - N/A   Overcast
4:55 AM 15.8 °F 0.9 °F 5.0 °F 62% 30.10 in 10.0 mi North 15.0 mph - N/A   Overcast
5:15 AM 14.0 °F -3.0 °F 5.0 °F 67% 30.09 in 10.0 mi North 18.4 mph - N/A   Overcast
5:35 AM 14.0 °F -3.4 °F 3.2 °F 62% 30.09 in 10.0 mi North 19.6 mph 25.3 mph N/A   Overcast
5:55 AM 14.0 °F -3.4 °F 3.2 °F 62% 30.12 in 10.0 mi North 19.6 mph - N/A   Overcast
6:15 AM 14.0 °F -1.4 °F 5.0 °F 67% 30.12 in 10.0 mi NNE 15.0 mph - N/A   Overcast
6:35 AM 12.2 °F -2.5 °F 3.2 °F 67% 30.12 in 10.0 mi NNE 12.7 mph - N/A   Overcast
6:55 AM 12.2 °F -5.3 °F 1.4 °F 62% 30.11 in 10.0 mi North 18.4 mph - N/A   Mostly Cloudy
7:15 AM 12.2 °F -4.3 °F 1.4 °F 62% 30.11 in 10.0 mi North 16.1 mph 24.2 mph N/A   Partly Cloudy
7:35 AM 12.2 °F -2.5 °F 1.4 °F 62% 30.12 in 10.0 mi North 12.7 mph - N/A   Clear
7:55 AM 12.2 °F -4.8 °F 1.4 °F 62% 30.14 in 10.0 mi North 17.3 mph - N/A   Clear
8:15 AM 12.2 °F -7.1 °F 1.4 °F 62% 30.16 in 10.0 mi North 23.0 mph - N/A   Clear
8:35 AM 10.4 °F -6.0 °F 1.4 °F 67% 30.14 in 10.0 mi North 15.0 mph - N/A   Clear
8:55 AM 10.4 °F -8.2 °F 1.4 °F 67% 30.15 in 10.0 mi North 19.6 mph - N/A   Clear
9:15 AM 10.4 °F -6.6 °F 1.4 °F 67% 30.17 in 10.0 mi North 16.1 mph - N/A   Clear
9:35 AM 10.4 °F -6.0 °F 1.4 °F 67% 30.17 in 10.0 mi North 15.0 mph 20.7 mph N/A   Partly Cloudy
9:55 AM 10.4 °F -7.2 °F -0.4 °F 62% 30.16 in 10.0 mi North 17.3 mph 21.9 mph N/A   Mostly Cloudy
10:15 AM 10.4 °F -6.6 °F -0.4 °F 62% 30.16 in 10.0 mi North 16.1 mph - N/A   Overcast
10:35 AM 10.4 °F -7.2 °F -2.2 °F 57% 30.15 in 10.0 mi North 17.3 mph - N/A   Mostly Cloudy
10:55 AM 10.4 °F -6.6 °F -0.4 °F 62% 30.13 in 10.0 mi North 16.1 mph - N/A   Overcast
11:15 AM 10.4 °F -8.2 °F -0.4 °F 62% 30.14 in 10.0 mi North 19.6 mph - N/A   Mostly Cloudy
11:35 AM 10.4 °F -8.6 °F -2.2 °F 57% 30.14 in 10.0 mi North 20.7 mph - N/A   Mostly Cloudy
11:55 AM 10.4 °F -6.0 °F -2.2 °F 57% 30.14 in 10.0 mi North 15.0 mph - N/A   Mostly Cloudy
12:15 PM 10.4 °F -7.7 °F -2.2 °F 57% 30.12 in 10.0 mi North 18.4 mph - N/A   Mostly Cloudy
12:35 PM 8.6 °F -10.0 °F -0.4 °F 67% 30.11 in 10.0 mi North 18.4 mph - N/A   Mostly Cloudy
12:55 PM 8.6 °F -9.5 °F -2.2 °F 62% 30.12 in 10.0 mi North 17.3 mph 23.0 mph N/A   Scattered Clouds
1:15 PM 8.6 °F -11.4 °F -2.2 °F 62% 30.12 in 10.0 mi North 21.9 mph - N/A   Clear
1:35 PM 8.6 °F -10.0 °F -2.2 °F 62% 30.12 in 10.0 mi NNW 18.4 mph - N/A   Scattered Clouds
1:55 PM 8.6 °F -10.5 °F -4.0 °F 57% 30.12 in 10.0 mi NNW 19.6 mph - N/A   Scattered Clouds
2:15 PM 8.6 °F -11.9 °F -5.8 °F 52% 30.12 in 10.0 mi North 23.0 mph 27.6 mph N/A   Partly Cloudy
2:35 PM 6.8 °F -14.3 °F -5.8 °F 56% 30.13 in 10.0 mi North 23.0 mph - N/A   Clear
2:55 PM 6.8 °F -13.8 °F -5.8 °F 56% 30.14 in 10.0 mi NNW 21.9 mph 28.8 mph N/A   Clear
3:15 PM 6.8 °F -13.8 °F -2.2 °F 67% 30.15 in 10.0 mi NW 21.9 mph - N/A   Clear
3:35 PM 6.8 °F -14.7 °F -5.8 °F 56% 30.16 in 10.0 mi NNW 24.2 mph 28.8 mph N/A   Clear
3:55 PM 5.0 °F -15.7 °F -7.6 °F 56% 30.17 in 10.0 mi NNW 20.7 mph 25.3 mph N/A   Clear
4:15 PM 3.2 °F -18.1 °F -9.4 °F 56% 30.17 in 10.0 mi NNW 20.7 mph 27.6 mph N/A   Clear
4:35 PM 3.2 °F -19.9 °F -9.4 °F 56% 30.18 in 10.0 mi NNW 25.3 mph 29.9 mph N/A   Clear
4:55 PM 3.2 °F -18.1 °F -7.6 °F 61% 30.18 in 10.0 mi NW 20.7 mph - N/A   Clear
5:15 PM 1.4 °F -21.0 °F -9.4 °F 61% 30.19 in 10.0 mi NW 21.9 mph - N/A   Clear
5:35 PM 1.4 °F -21.0 °F -9.4 °F 61% 30.20 in 10.0 mi NW 21.9 mph - N/A   Scattered Clouds
5:55 PM 1.4 °F -21.0 °F -9.4 °F 61% 30.20 in 10.0 mi NW 21.9 mph 27.6 mph N/A   Scattered Clouds
6:15 PM -0.4 °F -22.3 °F -9.4 °F 66% 30.20 in 10.0 mi NW 19.6 mph 24.2 mph N/A   Clear
6:35 PM -0.4 °F -24.7 °F - N/A% 30.21 in 7.0 mi NW 25.3 mph 32.2 mph N/A   Clear
6:55 PM -0.4 °F -22.8 °F -11.2 °F 60% 30.22 in 10.0 mi NW 20.7 mph 27.6 mph N/A   Partly Cloudy
7:15 PM -0.4 °F -24.7 °F -11.2 °F 60% 30.22 in 9.0 mi NW 25.3 mph 29.9 mph N/A   Partly Cloudy
7:35 PM -2.2 °F -25.2 °F -11.2 °F 66% 30.22 in 9.0 mi NW 20.7 mph 26.5 mph N/A   Clear
7:55 PM -2.2 °F -27.1 °F - N/A% 30.23 in 10.0 mi NW 25.3 mph 28.8 mph N/A   Clear
8:15 PM -2.2 °F -27.1 °F -11.2 °F 66% 30.23 in 9.0 mi NW 25.3 mph 32.2 mph N/A   Clear
8:35 PM -2.2 °F -26.2 °F -11.2 °F 66% 30.23 in 10.0 mi NW 23.0 mph 31.1 mph N/A   Clear
8:55 PM -4.0 °F -30.4 °F -14.8 °F 60% 30.24 in 10.0 mi NW 27.6 mph 31.1 mph N/A   Clear
9:15 PM -5.8 °F -32.0 °F -14.8 °F 65% 30.24 in 5.0 mi NW 25.3 mph 33.4 mph N/A   Clear
9:35 PM -5.8 °F -31.5 °F -16.6 °F 60% 30.23 in 4.0 mi NW 24.2 mph 34.5 mph N/A   Clear
9:55 PM -5.8 °F -32.0 °F -16.6 °F 60% 30.23 in 5.0 mi NW 25.3 mph 34.5 mph N/A   Clear
10:15 PM -7.6 °F -33.9 °F -16.6 °F 65% 30.23 in 10.0 mi NW 24.2 mph 29.9 mph N/A   Clear
10:35 PM -7.6 °F -33.4 °F -16.6 °F 65% 30.23 in 10.0 mi NW 23.0 mph - N/A   Clear
10:55 PM -7.6 °F -34.8 °F -16.6 °F 65% 30.24 in 4.0 mi NW 26.5 mph 33.4 mph N/A   Partly Cloudy
11:15 PM -9.4 °F -37.7 °F -18.4 °F 65% 30.24 in 4.0 mi WNW 27.6 mph 32.2 mph N/A   Clear
11:35 PM -11.2 °F -38.7 °F -18.4 °F 70% 30.24 in 7.0 mi WNW 24.2 mph - N/A   Clear
11:55 PM -11.2 °F -40.1 °F -20.2 °F 64% 30.25 in 5.0 mi NW 27.6 mph 32.2 mph N/A   Clear